Content
SEND FEEDBACK

Daily
Averages
Monthly
Summary
United States of America

DOWNIEVILLE, CALIFORNIA


Home > North America > United States > California
Elevation: 5045 feet     Latitude: 39 34N     Longitude: 120 38W

WEATHER
 
SELECT A DAY
Number of Records: 233,792;   Date Range: 1/1/95 - 10/23/14
 
SHARE

PRINT THIS DATA

[ ← Previous Day ]
WEATHER ALMANAC - APRIL 6, 2013
[ Next Day → ]
[ °C ]   °F
Weather ElementAverageHighLow
Temperature41.6 °F46.4 °F (5:17 pm)37.4 °F (6:12 am)
Dewpoint38.5 °F41 °F (12:19 pm)34 °F (8:52 am)
Humidity89 %100 % (12:29 am)73 % (4:52 pm)
Barometer30.15 in30.20 in (12:03 pm)30.09 in (1:52 am)
Wind Speed5.4 mph9.2 mph (5:17 pm)
Weather ElementAverage
Visibility8.2 mi
Wind DirectionSE (137.6 °)

Weather ElementTotal
Precipitation0.03 in
Heating Degree Days23.1 (Base 65)
Averaged from 50 records on April 6, 2013
WEATHER CONDITIONS BREAKOUT
WIND DIRECTION BREAKOUT
WEATHER BY HOUR - APRIL 6, 2013
[ °C ]   °F
Local TimeTemperatureDewpointHumidityBarometerVisibilityWind DirectionWind SpeedGust SpeedPrecipitationEventsConditions
12:29 AM39.2 °F39.2 °F100 %30.18 in10.0 miSouth (190°)6.9 mphOvercast
12:52 AM39.0 °F37.9 °F96 %30.12 in9.0 miSouth (190°)5.8 mphOvercast
1:41 AM39.2 °F39.2 °F100 %30.17 in1.5 miVariable3.5 mphOvercast
1:43 AM39.2 °F39.2 °F100 %30.16 in1.0 miSE (130°)4.6 mphMist
1:52 AM39.0 °F37.9 °F96 %30.09 in1.5 miVariable3.5 mphOvercast
1:54 AM39.2 °F37.4 °F93 %30.16 in3.0 miVariable3.5 mphOvercast
2:10 AM39.2 °F37.4 °F93 %30.16 in10.0 miCalmOvercast
2:52 AM39.0 °F36.0 °F89 %30.09 in10.0 miSE (140°)4.6 mphOvercast
3:52 AM39.9 °F36.0 °F86 %30.09 in10.0 miSSE (150°)6.9 mphOvercast
4:52 AM39.0 °F36.0 °F89 %30.09 in10.0 miSSE (150°)3.5 mphOvercast
5:52 AM39.0 °F37.0 °F93 %30.11 in9.0 miSSE (160°)5.8 mphOvercast
6:12 AM37.4 °F35.6 °F93 %30.16 in10.0 miSE (140°)3.5 mphOvercast
6:48 AM37.4 °F35.6 °F93 %30.16 in10.0 miESE (110°)3.5 mph0.00 inOvercast
6:52 AM37.9 °F35.1 °F89 %30.12 in10.0 miSSE (150°)4.6 mph0.00 inOvercast
7:01 AM39.2 °F35.6 °F87 %30.16 in10.0 miCalmOvercast
7:52 AM39.0 °F35.1 °F86 %30.12 in10.0 miVariable4.6 mphOvercast
8:52 AM39.9 °F34.0 °F79 %30.14 in10.0 miSE (140°)3.5 mph0.00 inOvercast
9:52 AM39.9 °F35.1 °F83 %30.14 in7.0 miSE (140°)4.6 mph0.01 inRainLight Rain
10:32 AM39.2 °F35.6 °F87 %30.19 in10.0 miVariable5.8 mph0.01 inOvercast
10:52 AM41.0 °F37.0 °F86 %30.14 in9.0 miVariable6.9 mph0.01 inOvercast
11:37 AM42.8 °F39.2 °F87 %30.19 in4.0 miVariable5.8 mph0.00 inOvercast
11:52 AM41.0 °F39.9 °F96 %30.15 in3.0 miSouth (190°)5.8 mph0.00 inOvercast
12:03 PM41.0 °F39.2 °F93 %30.20 in2.0 miSouth (180°)4.6 mphOvercast
12:12 PM41.0 °F39.2 °F93 %30.20 in1.8 miSouth (190°)5.8 mphOvercast
12:19 PM42.8 °F41.0 °F93 %30.20 in2.5 miSouth (170°)8.1 mphOvercast
12:49 PM42.8 °F41.0 °F93 %30.20 in8.0 miVariable5.8 mphOvercast
12:52 PM43.0 °F41.0 °F93 %30.15 in9.0 miSSE (160°)8.1 mphOvercast
1:09 PM44.6 °F41.0 °F87 %30.20 in10.0 miSSE (150°)6.9 mphOvercast
1:52 PM45.0 °F39.9 °F82 %30.14 in10.0 miSSW (210°)8.1 mphMostly Cloudy
2:13 PM44.6 °F39.2 °F81 %30.18 in10.0 miSW (230°)8.1 mphMostly Cloudy
2:52 PM46.0 °F39.9 °F79 %30.10 in10.0 miVariable3.5 mphOvercast
3:52 PM46.0 °F39.9 °F79 %30.12 in10.0 miWSW (250°)6.9 mphMostly Cloudy
4:52 PM46.0 °F37.9 °F73 %30.10 in10.0 miSouth (190°)5.8 mphOvercast
5:17 PM46.4 °F39.2 °F76 %30.16 in10.0 miSouth (190°)9.2 mphMostly Cloudy
5:44 PM44.6 °F39.2 °F81 %30.16 in10.0 miSSW (210°)4.6 mphScattered Clouds
5:52 PM45.0 °F37.9 °F76 %30.11 in10.0 miSW (230°)8.1 mphScattered Clouds
6:36 PM44.6 °F39.2 °F81 %30.15 in10.0 miSSW (200°)4.6 mphMostly Cloudy
6:52 PM44.1 °F41.0 °F89 %30.10 in10.0 miSouth (170°)4.6 mphOvercast
7:08 PM44.6 °F41.0 °F87 %30.15 in10.0 miSouth (170°)6.9 mphOvercast
7:52 PM43.0 °F41.0 °F93 %30.11 in10.0 miSouth (190°)4.6 mphOvercast
8:24 PM42.8 °F41.0 °F93 %30.16 in10.0 miSouth (190°)3.5 mphOvercast
8:32 PM42.8 °F39.2 °F87 %30.16 in10.0 miSW (220°)4.6 mphOvercast
8:52 PM42.1 °F39.9 °F92 %30.12 in10.0 miSouth (180°)5.8 mphOvercast
9:07 PM42.8 °F39.2 °F87 %30.17 in10.0 miSouth (180°)4.6 mphOvercast
9:16 PM42.8 °F39.2 °F87 %30.17 in10.0 miSouth (180°)6.9 mphOvercast
9:45 PM41.0 °F39.2 °F93 %30.16 in6.0 miSSE (160°)6.9 mphOvercast
9:52 PM41.0 °F39.9 °F96 %30.12 in5.0 miSSE (160°)5.8 mphOvercast
10:52 PM41.0 °F39.9 °F96 %30.12 in10.0 miSouth (170°)6.9 mphOvercast
11:01 PM41.0 °F39.2 °F93 %30.17 in10.0 miSouth (180°)6.9 mphOvercast
11:52 PM41.0 °F39.9 °F96 %30.12 in10.0 miSouth (190°)5.8 mphOvercast
Hourly data recorded from KBLU, located miles away from Downieville, California







STORIES FROM OUR PARTNERS